Time,TemperatureF,DewpointF,PressureIn,WindDirection,WindDirectionDegrees,WindSpeedMPH,WindSpeedGustMPH,Humidity,HourlyPrecipIn,Conditions,Clouds,dailyrainin,SoftwareType,DateUTC
2013-02-17 00:03:00,31.3,28.5,29.94,South,180,0.0,0.9,89,0.00,,,0.00,WUHU216HW,2013-02-17 08:03:00,
2013-02-17 00:08:00,31.3,28.5,29.94,South,180,0.0,0.0,89,0.00,,,0.00,WUHU216HW,2013-02-17 08:08:00,
2013-02-17 00:28:00,31.1,28.4,29.95,NNE,23,0.0,0.0,89,0.00,,,0.00,WUHU216HW,2013-02-17 08:28:00,
2013-02-17 00:33:00,31.1,28.4,29.95,NNE,23,0.0,0.0,89,0.00,,,0.00,WUHU216HW,2013-02-17 08:33:00,
2013-02-17 00:58:00,31.3,28.8,29.94,NE,45,1.3,1.3,90,0.00,,,0.00,WUHU216HW,2013-02-17 08:58:00,
2013-02-17 01:03:00,31.3,28.8,29.94,NE,45,1.3,1.3,90,0.00,,,0.00,WUHU216HW,2013-02-17 09:03:00,
2013-02-17 01:08:00,31.3,28.8,29.94,NE,45,1.3,1.3,90,0.00,,,0.00,WUHU216HW,2013-02-17 09:08:00,
2013-02-17 01:28:00,31.3,28.5,29.95,NNE,23,0.4,0.4,89,0.00,,,0.00,WUHU216HW,2013-02-17 09:28:00,
2013-02-17 01:33:00,31.3,28.5,29.95,NNE,23,0.4,0.4,89,0.00,,,0.00,WUHU216HW,2013-02-17 09:33:00,
2013-02-17 01:58:00,31.0,28.2,29.96,ENE,68,1.1,1.1,89,0.00,,,0.00,WUHU216HW,2013-02-17 09:58:00,
2013-02-17 02:03:00,31.0,28.2,29.96,ENE,68,1.3,1.3,89,0.00,,,0.00,WUHU216HW,2013-02-17 10:03:00,
2013-02-17 02:08:00,31.0,28.2,29.96,ENE,68,1.3,1.3,89,0.00,,,0.00,WUHU216HW,2013-02-17 10:08:00,
2013-02-17 02:28:00,31.3,28.5,29.97,West,270,0.0,0.0,89,0.00,,,0.00,WUHU216HW,2013-02-17 10:28:00,
2013-02-17 02:33:00,31.3,28.5,29.97,West,270,0.0,0.0,89,0.00,,,0.00,WUHU216HW,2013-02-17 10:33:00,
2013-02-17 02:58:00,31.7,28.9,29.97,NE,45,0.4,0.4,89,0.00,,,0.00,WUHU216HW,2013-02-17 10:58:00,
2013-02-17 03:03:00,31.7,28.9,29.97,NE,45,0.4,0.4,89,0.00,,,0.00,WUHU216HW,2013-02-17 11:03:00,
2013-02-17 03:28:00,32.0,29.3,29.97,NNE,23,1.8,1.8,89,0.00,,,0.00,WUHU216HW,2013-02-17 11:28:00,
2013-02-17 03:33:00,32.0,29.3,29.97,NNE,23,1.8,1.8,89,0.00,,,0.00,WUHU216HW,2013-02-17 11:33:00,
2013-02-17 03:58:00,32.6,30.0,29.97,WSW,248,0.9,0.9,90,0.00,,,0.00,WUHU216HW,2013-02-17 11:58:00,
2013-02-17 04:03:00,32.6,30.0,29.97,WSW,248,0.9,0.9,90,0.00,,,0.00,WUHU216HW,2013-02-17 12:03:00,
2013-02-17 04:28:00,32.4,29.5,29.98,NNE,23,0.0,0.0,89,0.00,,,0.00,WUHU216HW,2013-02-17 12:28:00,
2013-02-17 04:33:00,32.4,29.5,29.98,NNE,23,0.0,0.0,89,0.00,,,0.00,WUHU216HW,2013-02-17 12:33:00,
2013-02-17 04:58:00,31.3,28.5,29.99,NE,45,0.9,0.9,89,0.00,,,0.00,WUHU216HW,2013-02-17 12:58:00,
2013-02-17 05:03:00,31.3,28.5,29.99,NE,45,0.9,0.9,89,0.00,,,0.00,WUHU216HW,2013-02-17 13:03:00,
2013-02-17 05:28:00,30.6,28.4,30.00,NE,45,0.7,0.7,91,0.00,,,0.00,WUHU216HW,2013-02-17 13:28:00,
2013-02-17 05:33:00,30.6,28.4,30.00,NE,45,0.7,0.7,91,0.00,,,0.00,WUHU216HW,2013-02-17 13:33:00,
2013-02-17 05:58:00,29.5,26.7,30.00,NE,45,0.4,0.4,89,0.00,,,0.00,WUHU216HW,2013-02-17 13:58:00,
2013-02-17 06:03:00,29.5,26.7,30.00,NE,45,0.4,0.4,89,0.00,,,0.00,WUHU216HW,2013-02-17 14:03:00,
2013-02-17 06:28:00,29.2,26.9,30.00,NNE,23,0.0,0.0,91,0.00,,,0.00,WUHU216HW,2013-02-17 14:28:00,
2013-02-17 06:33:00,29.2,26.9,30.00,NNE,23,0.0,0.0,91,0.00,,,0.00,WUHU216HW,2013-02-17 14:33:00,
2013-02-17 06:58:00,28.4,25.9,30.01,NE,45,0.0,0.0,90,0.00,,,0.00,WUHU216HW,2013-02-17 14:58:00,
2013-02-17 07:03:00,28.4,25.9,30.01,NE,45,0.0,0.0,90,0.00,,,0.00,WUHU216HW,2013-02-17 15:03:00,
2013-02-17 07:28:00,28.4,25.9,30.02,NNW,338,0.0,0.0,90,0.00,,,0.00,WUHU216HW,2013-02-17 15:28:00,
2013-02-17 07:33:00,28.4,25.9,30.02,NNW,338,0.0,0.0,90,0.00,,,0.00,WUHU216HW,2013-02-17 15:33:00,
2013-02-17 07:58:00,35.6,32.0,30.03,NNE,23,0.2,0.2,87,0.00,,,0.00,WUHU216HW,2013-02-17 15:58:00,
2013-02-17 08:03:00,35.6,32.0,30.03,NNE,23,0.2,0.2,87,0.00,,,0.00,WUHU216HW,2013-02-17 16:03:00,
2013-02-17 08:08:00,35.6,32.0,30.03,NNE,23,0.2,0.2,87,0.00,,,0.00,WUHU216HW,2013-02-17 16:08:00,
2013-02-17 08:28:00,34.9,30.5,30.03,SSW,203,1.1,1.1,84,0.00,,,0.00,WUHU216HW,2013-02-17 16:28:00,
2013-02-17 08:33:00,34.9,30.5,30.03,SSW,203,1.1,1.1,84,0.00,,,0.00,WUHU216HW,2013-02-17 16:33:00,
2013-02-17 08:58:00,35.5,29.3,30.03,SSW,203,3.1,3.1,78,0.00,,,0.00,WUHU216HW,2013-02-17 16:58:00,
2013-02-17 09:03:00,35.5,29.3,30.03,SSW,203,2.5,3.1,78,0.00,,,0.00,WUHU216HW,2013-02-17 17:03:00,
2013-02-17 09:08:00,35.5,29.3,30.03,SSW,203,2.5,2.5,78,0.00,,,0.00,WUHU216HW,2013-02-17 17:08:00,
2013-02-17 09:28:00,37.4,29.9,30.03,SSW,203,2.5,2.5,74,0.00,,,0.00,WUHU216HW,2013-02-17 17:28:00,
2013-02-17 09:33:00,37.4,29.9,30.03,SSW,203,2.5,2.5,74,0.00,,,0.00,WUHU216HW,2013-02-17 17:33:00,
2013-02-17 09:58:00,40.0,30.6,30.03,SW,225,4.9,4.9,69,0.00,,,0.00,WUHU216HW,2013-02-17 17:58:00,
2013-02-17 10:03:00,40.0,31.0,30.03,SW,225,4.9,4.9,70,0.00,,,0.00,WUHU216HW,2013-02-17 18:03:00,
2013-02-17 10:08:00,40.0,31.0,30.03,SW,225,4.9,4.9,70,0.00,,,0.00,WUHU216HW,2013-02-17 18:08:00,
2013-02-17 10:28:00,42.8,32.2,30.03,South,180,4.7,4.7,66,0.00,,,0.00,WUHU216HW,2013-02-17 18:28:00,
2013-02-17 10:33:00,42.8,32.2,30.03,South,180,4.7,4.7,66,0.00,,,0.00,WUHU216HW,2013-02-17 18:33:00,
2013-02-17 10:58:00,45.7,32.2,30.03,SSW,203,2.9,2.9,59,0.00,,,0.00,WUHU216HW,2013-02-17 18:58:00,
2013-02-17 11:03:00,45.7,32.2,30.03,WSW,248,1.8,2.9,59,0.00,,,0.00,WUHU216HW,2013-02-17 19:03:00,
2013-02-17 11:08:00,45.7,32.2,30.03,WSW,248,1.8,1.8,59,0.00,,,0.00,WUHU216HW,2013-02-17 19:08:00,
2013-02-17 11:28:00,47.2,32.7,30.04,WSW,248,1.1,1.1,57,0.00,,,0.00,WUHU216HW,2013-02-17 19:28:00,
2013-02-17 11:33:00,47.2,32.7,30.04,WSW,248,1.1,1.1,57,0.00,,,0.00,WUHU216HW,2013-02-17 19:33:00,
2013-02-17 11:58:00,47.7,30.4,30.03,WSW,248,3.4,3.4,51,0.00,,,0.00,WUHU216HW,2013-02-17 19:58:00,
2013-02-17 12:03:00,47.7,30.4,30.03,WSW,248,3.4,3.4,51,0.00,,,0.00,WUHU216HW,2013-02-17 20:03:00,
2013-02-17 12:28:00,47.5,29.3,30.03,SW,225,5.8,5.8,49,0.00,,,0.00,WUHU216HW,2013-02-17 20:28:00,
2013-02-17 12:33:00,47.5,29.3,30.03,SW,225,5.8,5.8,49,0.00,,,0.00,WUHU216HW,2013-02-17 20:33:00,
2013-02-17 12:58:00,47.9,29.5,30.02,SSW,203,6.9,6.9,49,0.00,,,0.00,WUHU216HW,2013-02-17 20:58:00,
2013-02-17 13:03:00,47.9,29.5,30.02,SSW,203,6.9,6.9,49,0.00,,,0.00,WUHU216HW,2013-02-17 21:03:00,
2013-02-17 13:28:00,49.3,30.4,30.02,SSW,203,2.7,2.7,48,0.00,,,0.00,WUHU216HW,2013-02-17 21:28:00,
2013-02-17 13:33:00,49.3,30.4,30.02,SSW,203,2.7,2.7,48,0.00,,,0.00,WUHU216HW,2013-02-17 21:33:00,
2013-02-17 13:58:00,49.7,29.1,30.02,SW,225,1.1,1.1,45,0.00,,,0.00,WUHU216HW,2013-02-17 21:58:00,
2013-02-17 14:03:00,49.7,29.1,30.02,SW,225,1.1,1.1,45,0.00,,,0.00,WUHU216HW,2013-02-17 22:03:00,
2013-02-17 14:28:00,47.9,28.4,30.02,WSW,248,2.5,2.5,47,0.00,,,0.00,WUHU216HW,2013-02-17 22:28:00,
2013-02-17 14:33:00,47.9,28.4,30.02,WSW,248,2.5,2.5,47,0.00,,,0.00,WUHU216HW,2013-02-17 22:33:00,
2013-02-17 14:58:00,48.2,23.7,30.02,West,270,2.5,2.5,38,0.00,,,0.00,WUHU216HW,2013-02-17 22:58:00,
2013-02-17 15:03:00,48.2,23.7,30.02,West,270,2.5,2.5,38,0.00,,,0.00,WUHU216HW,2013-02-17 23:03:00,
2013-02-17 15:28:00,47.5,27.6,30.03,SSE,158,3.8,3.8,46,0.00,,,0.00,WUHU216HW,2013-02-17 23:28:00,
2013-02-17 15:33:00,47.5,27.6,30.03,SSE,158,3.8,3.8,46,0.00,,,0.00,WUHU216HW,2013-02-17 23:33:00,
2013-02-17 15:58:00,45.7,28.6,30.03,SSW,203,1.8,1.8,51,0.00,,,0.00,WUHU216HW,2013-02-17 23:58:00,
2013-02-17 16:03:00,45.7,28.6,30.03,SSW,203,1.8,1.8,51,0.00,,,0.00,WUHU216HW,2013-02-18 00:03:00,
2013-02-17 16:28:00,44.1,28.9,30.04,WSW,248,1.8,1.8,55,0.00,,,0.00,WUHU216HW,2013-02-18 00:28:00,
2013-02-17 16:33:00,44.1,28.9,30.04,WSW,248,1.8,1.8,55,0.00,,,0.00,WUHU216HW,2013-02-18 00:33:00,
2013-02-17 16:58:00,43.4,29.1,30.04,SW,225,1.6,1.6,57,0.00,,,0.00,WUHU216HW,2013-02-18 00:58:00,
2013-02-17 17:03:00,43.4,29.1,30.04,SW,225,1.6,1.6,57,0.00,,,0.00,WUHU216HW,2013-02-18 01:03:00,
2013-02-17 17:28:00,42.1,28.8,30.04,South,180,2.5,2.5,59,0.00,,,0.00,WUHU216HW,2013-02-18 01:28:00,
2013-02-17 17:33:00,42.1,28.8,30.04,South,180,2.5,2.5,59,0.00,,,0.00,WUHU216HW,2013-02-18 01:33:00,
2013-02-17 17:58:00,41.6,29.2,30.05,South,180,0.7,0.7,61,0.00,,,0.00,WUHU216HW,2013-02-18 01:58:00,
2013-02-17 18:03:00,41.6,29.2,30.05,South,180,0.7,0.7,61,0.00,,,0.00,WUHU216HW,2013-02-18 02:03:00,
2013-02-17 18:08:00,41.6,29.2,30.05,South,180,0.7,0.7,61,0.00,,,0.00,WUHU216HW,2013-02-18 02:08:00,
2013-02-17 18:28:00,40.7,30.2,30.05,NNE,23,0.0,0.0,66,0.00,,,0.00,WUHU216HW,2013-02-18 02:28:00,
2013-02-17 18:33:00,40.7,30.2,30.05,NNE,23,0.0,0.0,66,0.00,,,0.00,WUHU216HW,2013-02-18 02:33:00,
2013-02-17 18:58:00,39.2,28.7,30.05,NE,45,0.0,0.0,66,0.00,,,0.00,WUHU216HW,2013-02-18 02:58:00,
2013-02-17 19:03:00,39.2,28.7,30.05,NE,45,0.0,0.0,66,0.00,,,0.00,WUHU216HW,2013-02-18 03:03:00,
2013-02-17 19:08:00,39.2,28.7,30.05,NE,45,0.0,0.0,66,0.00,,,0.00,WUHU216HW,2013-02-18 03:08:00,
2013-02-17 19:28:00,37.8,28.2,30.06,NE,45,0.0,0.0,68,0.00,,,0.00,WUHU216HW,2013-02-18 03:28:00,
2013-02-17 19:33:00,37.8,28.2,30.06,NE,45,0.0,0.0,68,0.00,,,0.00,WUHU216HW,2013-02-18 03:33:00,
2013-02-17 19:58:00,36.7,27.6,30.06,NE,45,0.0,0.0,69,0.00,,,0.00,WUHU216HW,2013-02-18 03:58:00,
2013-02-17 20:03:00,36.7,27.6,30.06,NE,45,0.0,0.0,69,0.00,,,0.00,WUHU216HW,2013-02-18 04:03:00,
2013-02-17 20:28:00,35.6,27.2,30.07,ESE,113,0.0,0.0,71,0.00,,,0.00,WUHU216HW,2013-02-18 04:28:00,
2013-02-17 20:33:00,35.6,27.2,30.07,ESE,113,0.0,0.0,71,0.00,,,0.00,WUHU216HW,2013-02-18 04:33:00,
2013-02-17 20:58:00,35.3,27.1,30.08,NNE,23,0.0,0.0,72,0.00,,,0.00,WUHU216HW,2013-02-18 04:58:00,
2013-02-17 21:00:00,35.3,27.1,30.08,NNE,23,0.0,0.0,72,0.00,,,0.00,WUHU216HW,2013-02-18 05:00:00,
2013-02-17 21:05:00,35.3,27.1,30.08,NNE,23,0.0,0.0,72,0.00,,,0.00,WUHU216HW,2013-02-18 05:05:00,
2013-02-17 21:28:00,34.7,26.9,30.08,North,0,0.0,0.0,73,0.00,,,0.00,WUHU216HW,2013-02-18 05:28:00,
2013-02-17 21:33:00,34.7,26.9,30.08,North,0,0.0,0.0,73,0.00,,,0.00,WUHU216HW,2013-02-18 05:33:00,
2013-02-17 21:58:00,34.2,26.6,30.08,NE,45,0.4,0.4,74,0.00,,,0.00,WUHU216HW,2013-02-18 05:58:00,
2013-02-17 22:03:00,34.2,26.6,30.08,NE,45,0.4,0.4,74,0.00,,,0.00,WUHU216HW,2013-02-18 06:03:00,
2013-02-17 22:28:00,34.0,26.8,30.09,NE,45,0.4,0.4,75,0.00,,,0.00,WUHU216HW,2013-02-18 06:28:00,
2013-02-17 22:33:00,34.0,26.8,30.09,NE,45,0.4,0.4,75,0.00,,,0.00,WUHU216HW,2013-02-18 06:33:00,
2013-02-17 22:58:00,33.5,27.0,30.08,NE,45,1.1,1.1,77,0.00,,,0.00,WUHU216HW,2013-02-18 06:58:00,
2013-02-17 23:03:00,33.5,27.0,30.08,NE,45,1.1,1.1,77,0.00,,,0.00,WUHU216HW,2013-02-18 07:03:00,
2013-02-17 23:28:00,33.3,27.1,30.08,NE,45,0.9,0.9,78,0.00,,,0.00,WUHU216HW,2013-02-18 07:28:00,
2013-02-17 23:33:00,33.3,27.1,30.08,NE,45,0.9,0.9,78,0.00,,,0.00,WUHU216HW,2013-02-18 07:33:00,
2013-02-17 23:58:00,33.1,27.0,30.08,NE,45,0.0,0.0,78,0.00,,,0.00,WUHU216HW,2013-02-18 07:58:00,